Overview Statistics Trail Chart Weather Telemetry Raw packets
 

This is the latest recevied weather packets stored in our database for station/object 4S6DRJ-13. If no packets are shown the sender has not sent any weather packets the latest 10 day(s).

<< 533 534 535 536 537 538 539 >>
Time Temp. Humidity Pressure Rain* Wind** Luminosity Snow
1787630393 29.44° C 78% 1011.6 hPa 0 mm 0.89 m/s, 80° 835 W/m² -
1787630332 29.44° C 78% 1011.4 hPa 0 mm 1.79 m/s, 257° 814 W/m² -
1787630271 29.44° C 78% 1011.6 hPa 0 mm 1.79 m/s, 233° 325 W/m² -
1787630211 29.44° C 79% 1011.5 hPa 0 mm 0.45 m/s, 217° 550 W/m² -
1787630149 29.44° C 78% 1011.6 hPa 0 mm 1.34 m/s, 289° 959 W/m² -
1787630088 29.44° C 78% 1011.5 hPa 0 mm 1.34 m/s, 226° 900 W/m² -
1787630027 29.44° C 79% 1011.4 hPa 0 mm 0.89 m/s, 218° 872 W/m² -
1787629966 29.44° C 78% 1011.4 hPa 0 mm 0.89 m/s, 249° 400 W/m² -
1787629906 29.44° C 78% 1011.5 hPa 0 mm 0.89 m/s, 204° 307 W/m² -
1787629844 29.44° C 79% 1011.5 hPa 0 mm 0.45 m/s, 307° 397 W/m² -
1787629783 29.44° C 79% 1011.6 hPa 0 mm 0.89 m/s, 295° 777 W/m² -
1787629722 29.44° C 79% 1011.5 hPa 0 mm 0.45 m/s, 174° 866 W/m² -
1787629661 29.44° C 79% 1011.6 hPa 0 mm 1.79 m/s, 153° 796 W/m² -
1787629600 29.44° C 80% 1011.5 hPa 0 mm 0.89 m/s, 247° 745 W/m² -
1787629539 28.89° C 80% 1011.4 hPa 0 mm 0.89 m/s, 191° 751 W/m² -
1787629478 28.89° C 81% 1011.3 hPa 0 mm 0 m/s 797 W/m² -
1787629417 28.89° C 80% 1011.7 hPa 0 mm 0 m/s 773 W/m² -
1787629356 28.89° C 80% 1011.3 hPa 0 mm 0.89 m/s, 239° 765 W/m² -
1787629295 28.89° C 81% 1011.5 hPa 0 mm 0.45 m/s, 233° 786 W/m² -
1787629234 28.89° C 81% 1011.5 hPa 0 mm 1.34 m/s, 245° 790 W/m² -
1787629174 28.89° C 81% 1011.4 hPa 0 mm 0.89 m/s, 218° 773 W/m² -
1787629112 28.89° C 82% 1011.5 hPa 0 mm 1.34 m/s, 258° 764 W/m² -
1787629051 28.33° C 82% 1011.5 hPa 0 mm 0.89 m/s, 217° 734 W/m² -
1787628990 28.33° C 82% 1011.4 hPa 0 mm 0.89 m/s, 222° 736 W/m² -
1787628929 28.89° C 82% 1011.6 hPa 0 mm 0.89 m/s, 315° 696 W/m² -

* Rain latest hour (hover to see other rain measurements)
** Current wind speed in m/s (hover to see current wind gust speed)